www.pogodaiklimat.ru

Погода и климат >> Архив погоды >> Южная Африка >> Портервилл


ПОГОДА в Портервилле

  • Прогноз погоды в Портервилле
  • Монитор погоды в Портервилле

АРХИВ ПОГОДЫ в Портервилле

Время (UTC), дата Ветер
(напр.,м/с)
 
Видим.   Явления Облачность Т
(С)
Тd
(С)
f
(%)
Тe
(С)
Тes
(С)
Комфортность P
(гПа)
Po
(гПа)
Тmin
(С)
Tmax
(С)
R
(мм)
R24
(мм)
S
(см)
09 14.07 штиль 0 н/о н/о +15.9 +12.6 81 +16 +16 1006.5 +3.5 +15.9
12 14.07 Ю 3 н/о н/о +15.6 +8.4 62 +15 +15 1005.2 +3.5 +16.1 0.2
15 14.07 ЮЗ 2 н/о н/о +15.5 +10.7 73 +15 +15 1004.7 +15.5 +17.1
18 14.07 штиль 0 н/о н/о +7.9 +6.5 91 +7 +7 1005.9 +7.3 +17.1 0.2
21 14.07 СЗ 2 н/о н/о +8.4 +7.1 92 +6 +6 1006.7 +6.9 +17.1
00 15.07 штиль 0 н/о н/о +8.4 +7.3 93 +7 +7 1007.3 +5.4 +17.1 0.2
06 15.07 СВ 1 н/о н/о +5.1 +4.3 95 +4 +4 1007.2 +4.2 0.2
09 15.07 Ю 2 н/о н/о +11.3 +9.7 90 +10 +10 1008.5 +4.0 +12.6
12 15.07 З 1 н/о н/о +16.6 +9.3 62 +17 +17 1006.1 +4.0 +16.7
15 15.07 штиль 0 н/о н/о +16.9 +11.0 68 +17 +17 1004.7 +15.9 +17.7
18 15.07 СВ 1 н/о н/о +8.5 +7.1 91 +8 +8 1005.0 +7.7 +17.7
21 15.07 СВ 1 н/о н/о +7.5 +6.4 93 +6 +6 1005.0 +5.0 +17.7
00 16.07 СВ 1 н/о н/о +4.8 +3.9 94 +3 +3 1003.9 +4.2 +17.7
03 16.07 В 1 н/о н/о +5.1 +4.3 95 +4 +4 1002.7 +2.5 +17.7
06 16.07 ЮВ 1 н/о н/о +3.7 +2.8 94 +2 +2 1003.9 +2.2 0.2
09 16.07 Ю 2 н/о н/о +12.4 +9.6 83 +11 +11 1006.1 +2.2 +12.4
12 16.07 Ю 2 н/о н/о +16.1 +9.8 66 +16 +16 1004.2 +2.2 +16.9
15 16.07 штиль 0 н/о н/о +17.4 +10.3 63 +17 +17 1004.0 +16.0 +18.8
18 16.07 СВ 2 н/о н/о +8.2 +6.5 89 +6 +6 1004.5 +7.8 +18.8
21 16.07 З 1 н/о н/о +6.0 +4.8 92 +5 +5 1005.8 +5.5 +18.8
00 17.07 З 2 н/о н/о +8.6 +7.3 92 +7 +7 1005.3 +5.5 +18.8
03 17.07 СЗ 1 н/о н/о +6.6 +5.8 95 +5 +5 1005.6 +5.0 +18.8
06 17.07 СЗ 2 н/о н/о +9.0 +8.2 95 +7 +7 1007.5 +5.0
09 17.07 СЗ 5 н/о н/о +13.6 +9.1 74 +12 +12 1007.8 +5.0 +13.8
12 17.07 СЗ 5 н/о н/о +16.0 +9.9 67 +15 +15 1006.3 +5.0 +16.0 0.2
15 17.07 СЗ 2 н/о н/о +16.1 +9.8 66 +16 +16 1006.6 +15.9 +17.0
18 17.07 СЗ 4 н/о н/о +12.4 +8.5 77 +11 +11 1007.0 +12.0 +17.0 0.2
21 17.07 СЗ 4 н/о н/о +13.2 +8.7 74 +12 +12 1007.2 +11.9 +17.0
00 18.07 СЗ 4 н/о н/о +13.0 +8.5 74 +11 +11 1007.0 +11.9 +17.0 0.2
03 18.07 С 4 н/о н/о +13.5 +9.3 76 +12 +12 1005.8 +11.9 +17.0
06 18.07 С 5 н/о н/о +14.4 +9.6 73 +13 +13 1005.7 +11.9 0.2
09 18.07 С 5 н/о н/о +16.0 +11.0 72 +15 +15 1006.4 +11.9 +16.2
12 18.07 СЗ 6 н/о н/о +16.6 +12.4 76 +16 +16 1005.3 +11.9 +17.2
15 18.07 С 5 н/о н/о +15.0 +13.3 90 +14 +14 1005.2 +14.9 +17.2
18 18.07 С 4 н/о н/о +15.2 +13.0 87 +14 +14 1005.5 +14.9 +17.2 0.6
21 18.07 С 4 н/о н/о +15.0 +13.0 88 +14 +14 1005.0 +14.9 +17.2
00 19.07 СЗ 5 н/о н/о +14.3 +12.8 91 +13 +13 1004.7 +14.3 +17.2 5
03 19.07 СВ 2 н/о н/о +12.5 +10.9 90 +12 +12 1005.5 +12.5 +17.2
06 19.07 СЗ 1 н/о н/о +12.3 +10.2 87 +12 +12 1006.8 +11.4 9
09 19.07 ЮЗ 2 н/о н/о +12.5 +10.2 86 +12 +12 1008.7 +11.4 +13.5
12 19.07 Ю 3 н/о н/о +12.9 +9.3 79 +12 +12 1008.2 +11.4 +14.8 1
15 19.07 штиль 0 н/о н/о +11.6 +8.8 83 +11 +11 1009.7 +11.1 +14.8
18 19.07 Ю 1 н/о н/о +10.1 +7.0 81 +10 +10 1011.0 +9.9 +14.8 2
21 19.07 Ю 1 н/о н/о +8.8 +6.9 88 +8 +8 1012.1 +8.8 +14.8
00 20.07 В 2 н/о н/о +8.4 +6.0 85 +7 +7 1013.0 +6.9 +14.8 2
03 20.07 штиль 0 н/о н/о +4.2 +2.8 91 +3 +3 1012.3 +3.9 +14.8
06 20.07 штиль 0 н/о н/о +2.5 +1.6 94 +1 +1 1013.6 +2.5 2
09 20.07 С 1 н/о н/о +11.2 +6.3 72 +11 +11 1014.9 +2.4 +11.2
12 20.07 З 1 н/о н/о +14.0 +3.8 50 +15 +15 1013.1 +2.4 +14.6
15 20.07 Ю 1 н/о н/о +14.3 +5.2 54 +15 +15 1011.8 +14.1 +15.4
18 20.07 ЮЗ 1 н/о н/о +6.8 +3.7 81 +6 +6 1011.3 +6.4 +15.4
21 20.07 ЮВ 2 н/о н/о +4.4 +2.7 89 +2 +2 1010.6 +3.5 +15.4
00 21.07 В 1 н/о н/о +2.6 +1.7 94 +1 +1 1009.7 +1.9 +15.4
03 21.07 СВ 1 н/о н/о +1.6 +0.5 92 -0 -0 1007.7 +1.4 +15.4

 

Местоположение метеостанции Портервилл (Южная Африка): широта -30.01 долгота 18.98 высота над уровнем моря 123 м.

В архиве по умолчанию представлена погода в Портервилле за последнюю неделю. Архивные данные за месяц целиком и за предыдущие месяцы, начиная с января 2011 года, Вы можете получить, выбрав интересующий диапазон дат из раскрывающегося списка и нажав кнопку "Ввод!".


*Определитесь, кто Вы:
робот инопланетянин человек

Внимание! Время в таблицах - всемирное. Для получения местного времени необходимо прибавить поправку, которая равна 2 ч.

Смотрите также архив погоды в соседних городах и на ближайших метеорологических станциях:

Погода в Пофаддере (Южная Африка) (105 км)
Погода в Спрингбоке (Южная Африка) (111 км)
Погода в Ниеувоудтвилле (Южная Африка) (148 км)
Погода в Брандвлее (Южная Африка) (153 км)
Погода в Коингнаасе (Южная Африка) (165 км)
Погода в Кальвинии (Южная Африка) (178 км)
Погода в Фридендале (Южная Африка) (189 км)
Погода в Виулсдрифе (Южная Африка) (198 км)
Погода на Ауграбисе (Южная Африка) (205 км)
Погода в Порт Ноллоз (Южная Африка) (222 км)

Пояснения к столбцам:

Ветер - указаны скорость ветра в м/с - средняя за 10 мин, порывы в срок и между сроками (в фигурных скобках) и направление, откуда дует ветер: С - северный, СВ - северо-восточный, В - восточный, ЮВ - юго-восточный, Ю - южный, ЮЗ - юго-западный, З - западный, СЗ - северо-западный.
Видимость - горизонтальная дальность видимости в метрах или километрах. При видимости от 1 до 10 км при отсутствии осадков обычно наблюдается дымка, при ухудшении видимости до 1 км и менее - туман. В сухую погоду видимость может ухудшаться дымом, пылью или мглою.
Явления - указаны атмосферные явления, наблюдавшиеся в срок или в последний час перед сроком; фигурными скобками обозначены явления, наблюдавшиеся между сроками (за 1-3 часа до срока); квадратными скобками обозначены град или гололедные отложения с указанием их диаметра в мм.
Облачность - указаны через наклонную черту общая и нижняя облачность в баллах и высота нижней границы облаков в метрах; квадратными скобками обозначены формы облаков: Ci - перистые, Cs - перисто-слоистые, Cc - перисто-кучевые, Ac - высококучевые, As - высокослоистые, Sc - слоисто-кучевые, Ns - слоисто-дождевые, Cu - кучевые, Cb - кучево-дождевые. Подробнее классификацию облаков см. в Атласе облаков (PDF).
T - Температура воздуха - температура, измеренная на высоте 2 м над землей.
Td - Температура точки росы - температура, при понижении до которой содержащийся в воздухе водяной пар достигнет насыщения.
f - Относительная влажность воздуха - влажноcть воздуха, измеренная на высоте 2 м над землей.
Te - Эффективная температура - температура, которую ощущает одетый по сезону человек в тени. Характеристика душности погоды. При расчете учитывается влияние влажности воздуха и скорости ветра на теплоощущения человека.
Tes - Эффективная температура на солнце - температура, которую ощущает человек, с поправкой на солнечный нагрев. Характеристика знойности погоды. Зависит от высоты солнца над горизонтом, облачности и скорости ветра. Ночью, в пасмурную погоду, а также при ветре 12 м/с и более поправка равна нулю.
P - Атмосферное давление - приведенное к уровню моря атмосферное давление.
Po - Атмосферное давление - измеренное на уровне метеостанции атмосферное давление.
Tmin - Минимальная температура - минимум температуры воздуха на высоте 2 м над землей.
Tmax - Максимальная температура - максимум температуры воздуха на высоте 2 м над землей.
R - Количество осадков - Количество выпавших осадков за период времени, мм. При наведении курсора мыши на число - период времени, за который выпало указанное количество осадков.
R24 - Количество осадков - Количество выпавших осадков за 24 часа, мм.
S - Снежный покров - Высота снежного покрова, см. При наведении курсора мыши на число - состояние снежного покрова и степень покрытия местности в баллах.